Web Car-Videos.com

 

Car-videos.com

Videos
Performance Statistics
Unit Converter
Horsepower & Torque
Speed/RPM Calculator
Tires
FAQ
Contact Us
Updates and News Feed
Advertise with Us!  new!
Link to Us


Add to My AOL

Subscribe in NewsGator Online








Performance Home  |  List of all Cars  |  Custom Statistics  |  Tracks

Daytona International Speedway
Daytona Beach, FL
3.81 Miles

The first lap time is from a dead stop and the 2nd is taken when the car passes the starting line at the end of the 1st lap.

Car First Lap Second Lap
1.2006 Bugatti Veyron 16.4 (7MAT)2:12.72:09.4
2.1994 McLaren F1 (6M)2:16.52:13.6
3.2002 Porsche 911 GT2 (6M)2:26.12:23.4
4.2002 Porsche 911 Targa (6M)2:32.62:28.1
5.2001 BMW M3 (6M)2:32.92:29.1
6.2003 Mercedes-Benz SL 55 AMG (5A)2:33.12:29.1
7.2001 BMW M5 (6M)2:33.82:29.0
8.1997 Acura NSX-T (6M)2:33.82:28.8
9.1998 Chevrolet Camaro Z28 (6M)2:35.52:29.5
10.1994 Toyota Supra Turbo (6M)2:35.72:30.7
11.2004 Subaru Impreza WRX STi (USA) (6M)2:35.92:31.8
12.2007 Acura TL Type-S (6M)2:37.82:32.0
13.2003 Nissan 350Z Track (6M)2:38.22:33.4
14.2001 Jaguar XKR (5A)2:38.62:33.1
15.2003 Porsche Boxster S (6M)2:39.22:34.5
16.2000 Honda S2000 (6M)2:40.62:35.2
17.2002 Acura RSX Type-R (Jap) (6M)2:40.72:35.3
18.1999 Plymouth Prowler (4A)2:40.92:35.8
19.2001 Audi S4 Quattro (6M)2:41.32:37.3
20.2005 Acura RSX Type-S (6M)2:41.42:36.0
21.2002 Opel Speedster (5M)2:41.72:36.5
22.1968 Chevrolet Corvette L88 (3A)2:42.02:37.9
23.1970 Oldsmobile 4-4-2 W-30 (4M)2:42.12:37.2
24.1998 Volvo C70 Coupe (5M)2:42.82:32.8
25.2000 Porsche Boxster (5M)2:43.12:38.2
26.1973 Porsche 911 Carrera RS (5M)2:43.22:37.4
27.2003 Porsche Boxster (5M)2:43.22:37.5
28.2005 Chevrolet Cobalt SS Supercharged (5M)2:43.72:37.8
29.2002 Mercedes-Benz CLK 430 Convertible (5A)2:44.62:38.8
30.2003 Nissan Altima 3.5SE (5M)2:44.62:39.3
31.2001 Jaguar S-Type 4.0 (5A)2:45.52:39.3
32.2001 Toyota Celica GT-S (6M)2:45.72:38.8
33.2002 Subaru Impreza WRX Sedan (4A)2:45.92:40.7
34.2003 Audi A6 2.7T Quattro (5A)2:46.12:39.9
35.2002 Volkswagen GTI 1.8T (5M)2:46.62:43.1
36.1995 Eagle Talon TSI AWD (5M)2:46.62:40.7
37.1989 Toyota Supra Turbo (5M)2:47.02:41.3
38.1991 Toyota MR2 Turbo Coupe (5M)2:47.12:42.4
39.2002 Nissan Sentra SE-R Spec V (6M)2:47.12:41.4
40.2002 Acura RSX Type-S (6M)2:47.22:41.3
41.2003 Nissan Altima 3.5SE (4A)2:47.32:44.0
42.1992 Chevrolet Camaro Z28 (4A)2:47.42:40.9
43.2002 MINI Cooper S (6M)2:47.52:40.9
44.1991 Chevrolet Lumina Z34 (5M)2:47.62:42.2
45.1997 Pontiac Grand Prix GTP Sedan (4A)2:48.32:42.5
46.2002 Acura RSX (5M)2:48.32:41.8
47.1995 Oldsmobile Aurora (4A)2:48.52:42.1
48.2002 Lexus IS 300 (5M)2:48.72:43.2
49.2001 BMW 330 Ci Convertible (5M)2:49.12:43.4
50.2003 Mazda 6 s (5A)2:50.02:43.9
51.2001 Lincoln LS V6 (5M)2:50.62:44.0
52.2003 Cadillac CTS (5M)2:50.82:43.3
53.2000 Honda Civic SI (5M)2:51.82:44.6
54.2002 Dodge Neon ACR (5M)2:52.22:45.5
55.2003 Mazda 6 i (5M)2:52.42:45.7
56.1991 Nissan Sentra SE-R (5M)2:52.82:46.9
57.1997 Chevrolet Cavalier Z24 (5M)2:52.92:46.2
58.1999 Chrysler 300M (4A)2:53.22:47.4
59.1991 Nissan 240SX SE (5M)2:53.42:47.4
60.1989 Toyota MR2 Supercharged (5M)2:53.62:47.7
61.1999 Saab 9-5 SE V6 (4A)2:53.72:47.1
62.1986 Mazda RX-7 GXL (5M)2:53.82:47.3
63.2001 Toyota Celica GT (5M)2:53.92:47.3
64.1993 Toyota Camry SE V6 (4A)2:54.12:47.2
65.1984 Toyota Supra (5M)2:54.22:47.9
66.1988 Merkur XR4TI (5M)2:54.32:47.6
67.1997 Audi A4 1.8T Quattro (5M)2:54.82:47.6
68.1998 Honda Accord EX V6 Coupe (4A)2:54.92:48.0
69.1997 Saturn SC2 (5M)2:55.22:48.6
70.1995 Dodge Neon (5M)2:55.92:49.4
71.1998 Mazda 626 EX (4A)2:56.02:49.0
72.1990 Honda Civic Si (5M)2:56.32:48.9
73.1999 Rolls-Royce Silver Seraph (5A)2:58.32:52.1
74.1982 Triumph TR-8 (5M)2:58.62:52.2
75.2000 Chevrolet Impala Police Package (4A)3:00.52:53.0
76.2003 Subaru Forester 2.5X (5M)3:01.32:55.3
77.2002 Honda CR-V EX (5M)3:02.02:55.4
78.1986 Ford Mustang LX V6 (3A)3:03.42:56.0
79.1996 Suzuki Esteem GLX (5M)3:04.32:57.1
80.1989 Daihatsu Charade CLS (5M)3:09.43:02.3
81.1983 Chevrolet Cavalier CS (5M)3:18.23:10.6
82.2001 Hummer (AM General) H1 (4A)3:26.13:18.2